G0TRT-13 Weather Reports


time (UTC)temp
F
wind
direction
speed
knots
gust
knots
rain 1hr
in
rain 24hr
in
rain mn
in
humidity
%
barometer
mb
20260507144305 57 214 0.0 0.0 0.00 0.00 0.00 64 1014.7
20260507143803 57 214 0.0 0.0 0.00 0.00 0.00 64 1014.8
20260507143309 57 212 0.0 0.0 0.00 0.00 0.00 66 1014.8
20260507142803 57 212 0.0 0.9 0.00 0.00 0.00 63 1014.8
20260507142306 57 214 0.0 0.9 0.00 0.00 0.00 65 1014.9
20260507141802 57 210 0.0 0.0 0.00 0.00 0.00 64 1014.9
20260507141302 58 210 0.0 0.0 0.00 0.00 0.00 64 1014.9
20260507140802 58 210 0.0 0.0 0.00 0.00 0.00 65 1014.9
20260507140303 58 210 0.0 0.0 0.00 0.00 0.00 64 1015.0
20260507135802 58 205 0.0 0.0 0.00 0.00 0.00 65 1014.9
20260507135306 58 207 0.0 0.0 0.00 0.00 0.00 63 1015.0
20260507134802 58 215 0.0 0.0 0.00 0.00 0.00 63 1015.0
20260507134303 58 218 0.0 0.0 0.00 0.00 0.00 64 1015.0
20260507133802 59 212 0.0 0.0 0.00 0.00 0.00 65 1015.0
20260507133303 59 219 0.0 1.7 0.00 0.00 0.00 65 1014.9
20260507132802 59 219 0.9 1.7 0.00 0.00 0.00 64 1015.0
20260507132307 59 219 0.9 3.5 0.00 0.00 0.00 63 1015.0
20260507131802 60 214 0.0 3.5 0.00 0.00 0.00 63 1015.1
20260507131303 61 209 0.0 2.6 0.00 0.00 0.00 62 1015.0
20260507130803 61 220 0.0 1.7 0.00 0.00 0.00 62 1015.0
20260507130303 61 218 0.0 1.7 0.00 0.00 0.00 64 1015.1
20260507125803 61 217 0.0 1.7 0.00 0.00 0.00 63 1015.1
20260507125306 61 197 0.0 1.7 0.00 0.00 0.00 63 1015.1
20260507124803 60 132 0.0 0.9 0.00 0.00 0.00 65 1015.1
20260507124302 60 200 0.0 2.6 0.00 0.00 0.00 63 1015.1
20260507123802 60 200 0.0 2.6 0.00 0.00 0.00 62 1015.1
20260507123302 60 203 0.0 0.9 0.00 0.00 0.00 63 1015.1
20260507122803 60 156 0.0 0.9 0.00 0.00 0.00 62 1015.1
20260507122306 60 219 0.0 0.0 0.00 0.00 0.00 63 1015.2
20260507121804 60 208 0.0 0.9 0.00 0.00 0.00 63 1015.2
20260507121302 60 207 0.0 0.9 0.00 0.00 0.00 63 1015.2
20260507120802 60 208 0.0 0.0 0.00 0.00 0.00 61 1015.2
20260507120302 59 131 0.0 0.0 0.00 0.00 0.00 61 1015.3
20260507115803 60 127 0.0 0.0 0.00 0.00 0.00 60 1015.2
20260507115306 60 94 0.0 0.0 0.00 0.00 0.00 60 1015.2
20260507114802 60 211 0.0 0.0 0.00 0.00 0.00 60 1015.3
20260507114302 60 189 0.0 0.0 0.00 0.00 0.00 58 1015.2
20260507113803 60 184 0.0 0.0 0.00 0.00 0.00 58 1015.2
20260507113302 60 210 0.0 0.0 0.00 0.00 0.00 59 1015.2
20260507112803 61 213 0.0 1.7 0.00 0.00 0.00 58 1015.1
20260507112306 61 223 0.0 1.7 0.00 0.00 0.00 57 1015.2
20260507111803 62 191 0.0 1.7 0.00 0.00 0.00 54 1015.2
20260507111303 62 229 0.0 1.7 0.00 0.00 0.00 56 1015.2
20260507110803 62 107 0.0 2.6 0.00 0.00 0.00 58 1015.2
20260507110319 61 215 0.0 2.6 0.00 0.00 0.00 62 1015.2
20260507105804 60 102 0.0 0.9 0.00 0.00 0.00 65 1015.4
20260507105306 58 103 0.0 1.7 0.00 0.00 0.00 64 1015.3
20260507104802 58 104 0.0 1.7 0.00 0.00 0.00 65 1015.4
20260507104259 59 103 0.0 1.7 0.00 0.00 0.00 65 1015.3
20260507103758 59 124 0.0 1.7 0.00 0.00 0.00 64 1015.4
20260507103255 60 207 0.0 0.9 0.00 0.00 0.00 63 1015.4
20260507102754 61 205 0.0 1.7 0.00 0.00 0.00 63 1015.5
20260507102251 62 205 0.0 1.7 0.00 0.00 0.00 65 1015.5
20260507101750 62 210 0.0 1.7 0.00 0.00 0.00 66 1015.7
20260507101247 61 106 0.0 1.7 0.00 0.00 0.00 67 1015.7
20260507100746 61 105 0.0 0.9 0.00 0.00 0.00 66 1015.8
20260507100243 60 111 0.0 0.9 0.00 0.00 0.00 68 1015.7
20260507095742 59 205 0.0 0.9 0.00 0.00 0.00 70 1015.7
20260507095239 59 206 0.0 0.9 0.00 0.00 0.00 67 1015.7
20260507094736 59 195 0.0 0.9 0.00 0.00 0.00 68 1015.5
20260507094235 59 131 0.0 0.9 0.00 0.00 0.00 67 1015.4
20260507093732 59 182 0.0 1.7 0.00 0.00 0.00 67 1015.5
20260507093229 59 190 0.0 2.6 0.00 0.00 0.00 67 1015.7
20260507092727 59 109 0.0 2.6 0.00 0.00 0.00 68 1015.5
20260507092225 59 124 0.0 1.7 0.00 0.00 0.00 69 1015.7
20260507091725 59 189 0.0 0.0 0.00 0.00 0.00 69 1015.9
20260507091223 59 164 0.0 0.0 0.00 0.00 0.00 70 1015.9
20260507090721 58 165 0.0 0.0 0.00 0.00 0.00 72 1015.7
20260507090223 58 186 0.0 0.9 0.00 0.00 0.00 72 1015.8
20260507085720 57 188 0.0 0.9 0.00 0.00 0.00 72 1015.8
20260507085218 57 103 0.0 0.9 0.00 0.00 0.00 72 1015.8
20260507084717 56 187 0.0 1.7 0.00 0.00 0.00 74 1015.8
20260507084217 56 188 0.0 1.7 0.00 0.00 0.00 73 1015.8
20260507083717 56 161 0.0 0.9 0.00 0.00 0.00 76 1015.7
20260507083214 55 160 0.0 0.9 0.00 0.00 0.00 77 1015.8
20260507082712 54 165 0.0 2.6 0.00 0.00 0.00 77 1015.8
20260507082211 53 146 0.0 2.6 0.00 0.00 0.00 77 1015.8
20260507081708 53 164 0.0 0.9 0.00 0.00 0.00 80 1015.8
20260507081207 51 172 0.0 0.9 0.00 0.00 0.00 80 1015.8
20260507080703 51 129 0.0 0.9 0.00 0.00 0.00 79 1015.8
20260507080202 51 129 0.0 0.9 0.00 0.00 0.00 81 1015.9
20260507075703 50 120 0.0 0.9 0.00 0.00 0.00 82 1015.8
20260507075202 50 120 0.0 0.9 0.00 0.00 0.00 83 1015.8
20260507074702 49 118 0.0 0.9 0.00 0.00 0.00 83 1015.7
20260507074205 49 142 0.0 0.9 0.00 0.00 0.00 84 1015.7
20260507073702 48 118 0.0 1.7 0.00 0.00 0.00 84 1015.5
20260507073205 48 110 0.0 1.7 0.00 0.00 0.00 84 1015.5
20260507072703 47 158 0.0 0.9 0.00 0.00 0.00 85 1015.7
20260507072202 47 159 0.0 0.9 0.00 0.00 0.00 86 1015.7
20260507071704 47 128 0.0 0.9 0.00 0.00 0.00 86 1015.7
20260507071202 46 136 0.0 0.9 0.00 0.00 0.00 86 1015.7
20260507070703 46 136 0.0 0.9 0.00 0.00 0.00 87 1015.7
20260507070203 46 136 0.0 0.9 0.00 0.00 0.00 87 1015.5
20260507065702 45 136 0.0 0.9 0.00 0.00 0.00 87 1015.5
20260507065204 45 136 0.0 0.9 0.00 0.00 0.00 87 1015.4
20260507064703 45 137 0.0 0.9 0.00 0.00 0.00 87 1015.5
20260507064203 45 137 0.0 0.9 0.00 0.00 0.00 87 1015.5
20260507063706 45 161 0.0 0.0 0.00 0.00 0.00 88 1015.5
20260507063202 44 161 0.0 0.0 0.00 0.00 0.00 88 1015.5
20260507062656 44 161 0.0 0.0 0.00 0.00 0.00 87 1015.5
20260507062150 44 162 0.0 0.0 0.00 0.00 0.00 88 1015.5
20260507061645 44 162 0.0 0.9 0.00 0.00 0.00 87 1015.7
20260507061138 44 127 0.0 0.9 0.00 0.00 0.00 88 1015.4
20260507060632 44 127 0.0 0.0 0.00 0.00 0.00 88 1015.2
20260507060131 44 127 0.0 0.0 0.00 0.00 0.00 88 1015.2
20260507055631 44 127 0.0 0.0 0.00 0.00 0.00 88 1015.1
20260507055128 44 127 0.0 0.9 0.00 0.00 0.00 88 1015.1
20260507054626 44 127 0.0 0.9 0.00 0.00 0.00 88 1015.0
20260507054127 44 125 0.0 0.9 0.00 0.00 0.00 88 1015.1
20260507053626 44 125 0.0 0.9 0.00 0.00 0.00 88 1015.0
20260507053120 43 167 0.0 0.9 0.00 0.00 0.00 87 1015.0
20260507052620 43 142 0.0 0.9 0.00 0.00 0.00 87 1015.0
20260507052121 43 155 0.0 0.9 0.00 0.00 0.00 87 1015.0
20260507051618 43 115 0.0 0.9 0.00 0.00 0.00 87 1015.0
20260507051116 43 115 0.0 0.9 0.00 0.00 0.00 87 1015.1
20260507050627 43 115 0.0 0.0 0.00 0.00 0.00 87 1015.1
20260507050113 43 115 0.0 0.0 0.00 0.00 0.00 87 1015.2
20260507045613 43 115 0.0 0.0 0.00 0.00 0.00 87 1015.1
20260507045113 43 115 0.0 0.0 0.00 0.00 0.00 87 1015.0
20260507044610 43 115 0.0 0.0 0.00 0.00 0.00 87 1014.9
20260507044108 43 115 0.0 0.0 0.00 0.00 0.00 87 1015.0
20260507043606 43 115 0.0 0.9 0.00 0.00 0.00 87 1015.0
20260507043104 43 115 0.0 0.9 0.00 0.00 0.00 87 1015.0
20260507042602 43 115 0.0 0.9 0.00 0.00 0.00 87 1014.9
20260507042103 43 115 0.0 1.7 0.00 0.00 0.00 87 1014.8
20260507041559 43 115 0.0 1.7 0.00 0.00 0.00 87 1014.8
20260507041054 43 172 0.0 0.0 0.00 0.00 0.00 87 1014.8
20260507040554 43 171 0.0 0.0 0.00 0.00 0.00 86 1014.9
20260507040054 43 171 0.0 0.0 0.00 0.00 0.00 86 1014.9
20260507035556 43 172 0.0 0.0 0.00 0.00 0.00 86 1014.9
20260507035055 43 172 0.0 0.0 0.00 0.00 0.00 86 1014.9
20260507034554 43 172 0.0 0.0 0.00 0.00 0.00 86 1014.9
20260507034055 43 171 0.0 0.0 0.00 0.00 0.00 86 1015.0
20260507033554 43 171 0.0 0.0 0.00 0.00 0.00 86 1014.9
20260507033055 43 171 0.0 0.0 0.00 0.00 0.00 86 1014.9
20260507032554 43 171 0.0 0.0 0.00 0.00 0.00 86 1015.0
20260507032055 43 171 0.0 0.0 0.00 0.00 0.00 86 1014.8
20260507031552 43 174 0.0 0.0 0.00 0.00 0.00 86 1014.9
20260507031052 43 176 0.0 0.0 0.00 0.00 0.00 86 1014.9
20260507030552 43 176 0.0 0.0 0.00 0.00 0.00 86 1014.9
20260507030053 43 177 0.0 0.0 0.00 0.00 0.00 86 1014.9
20260507025552 43 177 0.0 0.0 0.00 0.00 0.00 86 1014.8
20260507025053 43 176 0.0 0.0 0.00 0.00 0.00 86 1014.9
20260507024553 43 177 0.0 0.0 0.00 0.00 0.00 86 1014.7
20260507024052 43 176 0.0 0.0 0.00 0.00 0.00 86 1014.7
20260507023552 43 176 0.0 0.0 0.00 0.00 0.00 86 1014.8
20260507023052 43 176 0.0 0.0 0.00 0.00 0.00 86 1014.6
20260507022552 43 176 0.0 0.0 0.00 0.00 0.00 86 1014.7
20260507022106 43 176 0.0 0.0 0.00 0.00 0.00 86 1014.6
20260507021553 43 176 0.0 0.0 0.00 0.00 0.00 85 1014.8
20260507021052 43 176 0.0 0.0 0.00 0.00 0.00 85 1014.7
20260507020553 43 176 0.0 0.0 0.00 0.00 0.00 85 1014.8
20260507020052 43 176 0.0 0.0 0.00 0.00 0.00 85 1014.8
20260507015552 43 176 0.0 0.0 0.00 0.00 0.00 85 1014.6
20260507015052 43 176 0.0 0.0 0.00 0.00 0.00 85 1014.8
20260507014553 43 176 0.0 2.6 0.00 0.00 0.00 85 1014.9
20260507014052 43 177 0.0 2.6 0.00 0.00 0.00 85 1014.8
20260507013554 43 156 0.0 0.0 0.00 0.00 0.00 85 1014.8
20260507013052 43 156 0.0 0.0 0.00 0.00 0.00 84 1014.9
20260507012550 43 156 0.0 0.0 0.00 0.00 0.00 84 1014.8
20260507012048 43 156 0.0 0.0 0.00 0.00 0.00 84 1014.8
20260507011546 43 156 0.0 0.0 0.00 0.00 0.00 84 1014.8
20260507011045 43 156 0.0 0.9 0.00 0.00 0.00 84 1014.8
20260507010542 43 155 0.0 0.9 0.00 0.00 0.00 84 1014.9
20260507010040 43 179 0.0 0.0 0.00 0.00 0.00 84 1014.8
20260507005538 43 177 0.0 0.0 0.00 0.00 0.00 83 1014.8
20260507005036 43 177 0.0 0.0 0.00 0.00 0.00 83 1014.8
20260507004031 43 177 0.0 0.9 0.00 0.00 0.00 83 1014.8
20260507003531 43 115 0.0 0.0 0.00 0.00 0.00 82 1014.8
20260507003033 43 115 0.0 0.0 0.00 0.00 0.00 82 1014.8
20260507002530 43 115 0.0 0.0 0.00 0.00 0.00 82 1014.9
20260507002030 43 115 0.0 0.0 0.00 0.00 0.00 82 1014.8
20260507001535 43 115 0.0 0.9 0.00 0.00 0.00 82 1014.9
20260507001030 43 113 0.0 0.9 0.00 0.00 0.00 82 1015.0
20260507000532 43 113 0.0 0.9 0.00 0.00 0.00 81 1014.9
20260507000029 43 113 0.0 0.9 0.00 0.00 0.00 81 1014.9
20260506235527 43 113 0.0 0.9 0.00 0.00 0.00 81 1014.9
20260506235027 43 113 0.0 0.9 0.00 0.00 0.00 81 1015.0
20260506234528 43 113 0.0 0.9 0.00 0.00 0.00 80 1015.0
20260506234024 43 112 0.0 0.9 0.00 0.00 0.00 80 1015.1
20260506233524 43 113 0.0 0.9 0.00 0.00 0.00 80 1015.0
20260506233022 43 112 0.0 1.7 0.00 0.00 0.00 80 1015.1
20260506232520 42 112 0.0 1.7 0.00 0.00 0.00 80 1015.0
20260506232018 42 113 0.0 1.7 0.00 0.00 0.00 80 1014.9
20260506231516 42 113 0.0 1.7 0.00 0.00 0.00 81 1015.0
20260506231013 42 114 0.0 0.9 0.00 0.00 0.00 81 1014.9
20260506230511 42 114 0.0 0.0 0.00 0.00 0.00 80 1015.0
20260506230010 42 114 0.0 0.0 0.00 0.00 0.00 80 1014.9
20260506225507 42 114 0.0 0.0 0.00 0.00 0.00 79 1015.0
20260506225006 42 114 0.0 0.0 0.00 0.00 0.00 79 1014.9
20260506224506 42 114 0.0 0.0 0.00 0.00 0.00 78 1015.0
20260506224006 42 114 0.0 0.0 0.00 0.00 0.00 78 1015.0
20260506223504 43 114 0.0 0.0 0.00 0.00 0.00 78 1014.9
20260506222957 43 114 0.0 0.0 0.00 0.00 0.00 77 1014.8
20260506222453 43 114 0.0 0.0 0.00 0.00 0.00 77 1014.8
20260506221953 43 114 0.0 0.9 0.00 0.00 0.00 77 1014.6
20260506221453 44 114 0.0 0.9 0.00 0.00 0.00 77 1014.7
20260506220953 44 114 0.0 0.0 0.00 0.00 0.00 77 1014.6
20260506220450 44 115 0.0 0.9 0.00 0.00 0.00 77 1014.6
20260506215950 44 115 0.0 0.9 0.00 0.00 0.00 77 1014.6
20260506215448 43 115 0.0 0.9 0.00 0.00 0.00 77 1014.6
20260506214947 43 115 0.0 0.0 0.00 0.00 0.00 75 1014.7
20260506214448 44 115 0.0 0.0 0.00 0.00 0.00 75 1014.6
20260506213946 44 115 0.0 0.0 0.00 0.00 0.00 74 1014.6
20260506213443 44 115 0.0 0.0 0.00 0.00 0.00 73 1014.6
20260506212942 45 115 0.0 0.0 0.00 0.00 0.00 72 1014.6
20260506212440 45 115 0.0 0.0 0.00 0.00 0.00 72 1014.7
20260506211937 46 115 0.0 0.9 0.00 0.00 0.00 72 1014.6
20260506211436 46 115 0.0 0.9 0.00 0.00 0.00 72 1014.5
20260506210932 46 115 0.0 0.9 0.00 0.00 0.00 71 1014.6
20260506210431 47 115 0.0 0.9 0.00 0.00 0.00 71 1014.4
20260506205931 47 114 0.0 1.7 0.00 0.00 0.00 71 1014.6
20260506205431 47 114 0.0 1.7 0.00 0.00 0.00 70 1014.4
20260506204937 47 114 0.0 0.9 0.00 0.00 0.00 70 1014.4
20260506204437 47 114 0.0 0.9 0.00 0.00 0.00 70 1014.3
20260506203932 48 114 0.0 0.0 0.00 0.00 0.00 69 1014.2
20260506203424 48 114 0.0 0.0 0.00 0.00 0.00 69 1014.3
20260506202921 48 114 0.0 0.0 0.00 0.00 0.00 69 1014.3
20260506202420 48 114 0.0 1.7 0.00 0.00 0.00 68 1014.1
20260506201918 49 114 0.0 1.7 0.00 0.00 0.00 67 1014.0
20260506201415 49 113 0.0 1.7 0.00 0.00 0.00 67 1013.8
20260506200916 49 114 0.0 1.7 0.00 0.00 0.00 67 1013.8
20260506200413 49 114 0.0 1.7 0.00 0.00 0.00 66 1013.8
20260506195911 50 115 0.0 0.9 0.00 0.00 0.00 66 1013.9
20260506195412 50 115 0.0 0.9 0.00 0.00 0.00 66 1013.9
20260506194911 51 115 0.0 0.9 0.00 0.00 0.00 65 1013.9
20260506194410 51 115 0.0 1.7 0.00 0.00 0.00 65 1013.9
20260506193907 51 115 0.0 1.7 0.00 0.00 0.00 64 1013.8
20260506193406 51 114 0.0 1.7 0.00 0.00 0.00 63 1013.8
20260506192905 52 115 0.0 1.7 0.00 0.00 0.00 62 1013.8
20260506192405 52 115 0.0 1.7 0.00 0.00 0.00 61 1013.8
20260506191903 53 115 0.0 1.7 0.00 0.00 0.00 60 1013.7
20260506191405 53 115 0.0 2.6 0.00 0.00 0.00 59 1013.7
20260506190905 53 116 0.0 3.5 0.00 0.00 0.00 59 1013.6
20260506190406 54 116 0.0 3.5 0.00 0.00 0.00 58 1013.6
20260506185904 54 115 0.0 1.7 0.00 0.00 0.00 59 1013.6
20260506185402 54 115 0.0 1.7 0.00 0.00 0.00 59 1013.6
20260506184903 54 118 0.0 0.9 0.00 0.00 0.00 58 1013.6
20260506183903 54 117 0.0 1.7 0.00 0.00 0.00 57 1013.5
20260506183405 54 114 0.0 0.9 0.00 0.00 0.00 57 1013.6
20260506182902 54 114 0.0 0.9 0.00 0.00 0.00 57 1013.4
20260506182403 55 114 0.0 2.6 0.00 0.00 0.00 57 1013.5
20260506181902 55 114 0.0 2.6 0.00 0.00 0.00 56 1013.4
20260506181403 55 113 0.0 0.9 0.00 0.00 0.00 56 1013.4
20260506180902 55 113 0.0 2.6 0.00 0.00 0.00 56 1013.3
20260506180402 55 113 0.0 2.6 0.00 0.00 0.00 55 1013.3
20260506175901 55 114 0.0 1.7 0.00 0.00 0.00 55 1013.1
20260506175405 55 113 0.0 1.7 0.00 0.00 0.00 56 1013.1
20260506174903 56 113 0.0 1.7 0.00 0.00 0.00 55 1013.0
20260506174403 56 118 0.0 2.6 0.00 0.00 0.00 56 1013.0
20260506173902 56 140 0.0 2.6 0.00 0.00 0.00 55 1013.0
20260506173403 56 214 0.0 0.9 0.00 0.00 0.00 54 1013.0
20260506172857 56 110 0.0 0.9 0.00 0.00 0.00 54 1012.9
20260506172352 56 115 0.0 0.9 0.00 0.00 0.00 55 1013.0
20260506171846 56 134 0.0 0.9 0.00 0.00 0.00 55 1013.0
20260506171344 56 120 0.0 2.6 0.00 0.00 0.00 55 1013.0
20260506170837 56 120 0.0 2.6 0.00 0.00 0.00 55 1012.9
20260506170337 57 122 0.0 3.5 0.00 0.00 0.00 54 1013.0
20260506165836 57 116 0.0 3.5 0.00 0.00 0.00 52 1012.9
20260506165333 57 115 0.0 0.9 0.00 0.00 0.00 53 1013.0
20260506164831 57 192 0.0 0.9 0.00 0.00 0.00 52 1013.0
20260506164332 58 117 0.0 0.9 0.00 0.00 0.00 50 1013.0
20260506163831 58 227 0.0 0.9 0.00 0.00 0.00 51 1012.9
20260506163332 58 228 0.0 1.7 0.00 0.00 0.00 51 1012.9
20260506162831 58 214 0.0 1.7 0.00 0.00 0.00 51 1012.9
20260506162331 58 233 0.0 0.9 0.00 0.00 0.00 50 1012.8
20260506161831 58 141 0.0 0.9 0.00 0.00 0.00 52 1012.9
20260506161331 57 108 0.0 0.9 0.00 0.00 0.00 54 1013.0
20260506160831 57 117 0.0 2.6 0.00 0.00 0.00 53 1012.9
20260506160331 57 117 0.9 3.5 0.00 0.00 0.00 52 1013.0
20260506155835 58 117 0.9 3.5 0.00 0.00 0.00 52 1012.9
20260506155329 58 117 0.0 3.5 0.00 0.00 0.00 52 1012.9
20260506154827 58 144 0.0 2.6 0.00 0.00 0.00 52 1013.0
20260506154328 59 114 0.0 2.6 0.00 0.00 0.00 51 1013.0
20260506153827 59 221 0.0 1.7 0.00 0.00 0.00 51 1013.0
20260506153328 59 221 0.0 2.6 0.00 0.00 0.00 50 1013.0
20260506152826 59 227 0.0 2.6 0.00 0.00 0.00 50 1013.0
20260506152325 60 111 0.0 1.7 0.00 0.00 0.00 51 1013.0
20260506151823 60 114 0.0 0.9 0.00 0.00 0.00 51 1013.1
20260506151322 60 231 0.0 0.9 0.00 0.00 0.00 51 1013.1
20260506150822 60 101 0.0 2.6 0.00 0.00 0.00 50 1013.1
20260506150321 61 77 0.9 2.6 0.00 0.00 0.00 49 1013.1
20260506145821 61 223 0.0 2.6 0.00 0.00 0.00 50 1013.2
20260506145319 61 233 0.9 5.2 0.00 0.00 0.00 48 1013.2
20260506144819 60 226 0.9 5.2 0.00 0.00 0.00 48 1013.2